Temperature
2 3 3 3 3 3 2 2 2 3 4 4 5 5 5 6 5 5 5 5 5 4 4 4 4 4 5 5 5 6 6 7 7 8 9 9 9 9 9 10 10 10 10 10
1 3 3 3 3 4 3 4 3 3 3 5 5 5 5 5 5 5 5 4 4 4 4 4 4 4 4 5 5 5 6 6 7 7 8 8 9 9 9 9 10 10 10 10
1 3 3 2 3 4 4 4 4 3 3 5 4 5 4 5 5 4 4 4 4 4 3 3 4 4 4 4 5 5 6 6 6 7 7 8 8 9 9 9 9 9 10 10
0 1 -0 3 5 5 4 4 4 4 4 4 4 5 5 4 4 4 3 3 3 3 3 3 3 4 4 4 4 5 5 6 6 6 7 7 8 8 8 9 9 9 10 10
-0 0 1 3 5 4 3 2 4 4 4 4 4 4 4 4 4 3 3 3 3 3 3 3 3 3 4 4 4 4 5 5 6 6 6 7 7 8 8 8 9 9 9 10
-0 -0 1 3 4 4 3 1 3 4 3 3 3 1 2 3 3 3 2 2 2 2 3 3 3 3 3 3 4 4 4 5 6 6 6 6 7 7 8 8 9 9 9 9
-0 -0 1 4 4 3 1 1 4 4 3 3 2 2 2 2 2 2 2 2 2 2 2 2 3 3 3 3 3 4 4 5 5 6 6 6 7 7 7 8 8 9 9 9
-1 -0 1 4 3 2 1 3 4 3 3 3 3 2 2 2 2 2 2 2 2 2 2 2 2 2 3 3 3 3 4 5 5 5 6 6 6 7 7 8 8 8 9 9
0 1 3 4 4 3 4 3 3 3 2 2 2 2 2 1 1 1 1 1 1 1 2 2 2 2 2 2 3 3 4 4 5 5 5 6 6 6 7 7 8 8 8 8
1 2 3 4 4 4 3 3 3 2 2 1 1 1 1 1 1 1 1 1 1 1 1 2 2 2 2 2 2 3 3 4 4 4 5 5 6 6 6 7 7 7 8 8
1 2 3 3 4 3 3 2 2 1 1 1 0 0 0 0 0 0 0 0 0 1 1 1 1 1 2 2 2 2 3 3 4 4 4 5 5 6 6 7 7 7 8 8
1 2 2 2 3 3 2 2 1 1 0 0 -0 -0 -0 -0 -0 -0 -0 0 -0 0 0 1 1 1 1 1 2 2 2 3 3 4 4 4 5 5 6 6 7 7 8 8
3 3 2 2 2 1 1 1 0 0 -0 -1 -1 -1 -1 -1 -1 -1 -1 -0 -0 -0 -0 0 0 1 1 1 1 2 2 2 3 3 4 4 4 5 5 6 6 7 7 7
2 2 1 1 1 0 0 -0 -0 -1 -1 -1 -1 -1 -1 -1 -1 -1 -1 -1 -1 -1 -0 -0 0 0 1 1 1 1 2 2 2 3 3 4 4 4 5 5 6 6 6 7
1 1 0 -0 -0 -0 -1 -1 -1 -1 -2 -2 -2 -2 -2 -2 -2 -2 -1 -1 -1 -1 -1 -1 -1 -0 0 0 1 1 1 2 2 2 3 3 4 4 5 5 6 6 6 6
-0 -0 -1 -1 -1 -1 -1 -2 -2 -2 -2 -2 -3 -3 -3 -3 -2 -2 -2 -2 -2 -1 -1 -1 -1 -0 -0 0 0 1 1 2 2 2 3 3 4 4 4 5 5 5 5 5
-1 -1 -2 -2 -2 -2 -2 -2 -3 -3 -3 -3 -3 -3 -3 -3 -3 -3 -2 -2 -2 -2 -1 -1 -1 -1 -1 -0 0 1 1 2 2 2 3 3 3 4 4 5 5 5 5 5
-2 -2 -2 -3 -3 -3 -3 -3 -3 -3 -4 -4 -4 -4 -4 -4 -3 -3 -3 -3 -2 -2 -1 -1 -1 -1 -1 -0 0 1 1 2 2 2 3 3 3 4 4 4 4 4 4 4
-2 -2 -3 -3 -3 -3 -4 -4 -4 -4 -4 -4 -4 -4 -4 -4 -4 -4 -3 -3 -3 -3 -2 -1 -1 -1 -1 -0 0 1 1 1 2 2 3 3 3 4 4 4 4 4 4 4
-3 -3 -3 -4 -4 -4 -4 -4 -5 -5 -5 -5 -5 -5 -5 -4 -4 -4 -4 -4 -3 -3 -3 -2 -2 -1 -0 -0 0 1 1 1 2 2 2 3 3 3 3 3 3 3 4 4
-4 -4 -4 -4 -5 -5 -5 -5 -5 -5 -5 -5 -5 -5 -5 -5 -5 -5 -5 -4 -3 -3 -3 -2 -2 -1 -1 -0 0 1 1 1 2 2 2 2 3 3 3 3 3 3 3 3
-4 -5 -5 -5 -5 -5 -5 -5 -6 -6 -6 -6 -6 -6 -6 -5 -5 -5 -5 -5 -4 -4 -3 -3 -2 -2 -1 -1 -0 0 1 1 2 2 2 2 2 2 2 2 2 3 3 3
-5 -5 -5 -6 -6 -6 -6 -6 -6 -6 -6 -6 -6 -6 -6 -6 -6 -6 -6 -5 -4 -4 -4 -3 -2 -2 -1 -1 -0 0 1 1 2 2 2 2 2 2 2 2 2 3 3 3
-5 -6 -6 -6 -6 -6 -6 -6 -7 -7 -7 -6 -6 -6 -6 -6 -6 -6 -5 -5 -4 -4 -4 -3 -3 -2 -2 -1 -0 0 1 1 1 2 2 2 2 2 2 2 2 2 3 3
-6 -6 -6 -7 -7 -7 -7 -7 -7 -7 -7 -7 -6 -6 -6 -6 -6 -6 -6 -5 -5 -4 -4 -3 -2 -2 -2 -1 -0 -0 0 1 1 1 1 2 2 2 2 2 2 2 3 3
-7 -7 -7 -7 -7 -8 -8 -8 -8 -7 -7 -7 -7 -7 -6 -6 -6 -6 -6 -5 -5 -4 -4 -3 -3 -2 -2 -1 -1 -0 -0 0 1 1 1 1 1 2 2 2 2 2 2 2
-7 -8 -8 -8 -8 -8 -8 -8 -8 -8 -8 -8 -8 -7 -7 -7 -7 -6 -6 -6 -5 -5 -4 -3 -3 -3 -2 -2 -1 -1 -0 0 0 1 1 1 1 1 1 1 2 2 2 2
Wind_Speed
17 18 18 19 18 14 14 14 15 17 19 18 14 12 11 11 11 11 11 10 9 8 8 9 9 9 8 9 9 7 5 4 4 5 5 6 7 8 9 11 13 13 14 15
15 16 16 20 19 17 17 16 16 18 19 14 12 10 10 10 10 11 11 10 10 9 9 9 10 9 9 9 9 8 6 4 4 4 4 5 6 8 9 10 11 12 13 14
9 10 13 13 12 13 11 11 11 14 13 10 10 10 10 9 9 10 10 10 11 9 9 9 9 9 8 9 9 7 6 4 4 3 4 5 6 7 8 9 10 11 13 13
7 8 10 9 5 6 8 9 8 10 9 9 9 10 9 8 8 9 10 10 10 9 9 9 8 8 8 8 8 7 6 4 3 3 4 4 5 7 8 8 10 10 12 13
5 7 12 10 6 4 5 9 7 8 9 9 9 9 8 6 7 8 10 9 9 8 9 9 9 8 8 8 7 7 6 4 3 3 4 4 5 6 7 7 8 9 11 12
7 7 8 6 1 2 2 7 4 4 7 8 8 8 8 9 10 10 10 9 9 9 9 9 9 8 7 7 7 7 7 5 4 3 4 4 5 5 5 7 8 9 10 11
13 10 9 6 1 3 2 7 3 4 6 7 7 8 9 11 11 10 10 10 9 9 9 9 9 8 8 7 7 7 7 6 4 4 4 4 4 4 5 6 7 8 10 9
7 9 10 3 2 4 7 5 6 7 7 8 9 11 11 11 11 11 10 10 9 8 9 8 8 7 8 8 7 7 6 5 4 4 5 4 3 3 5 7 8 8 9 9
9 10 7 3 5 7 6 7 7 7 8 9 10 11 11 11 11 10 10 10 8 8 9 9 8 6 7 8 7 7 6 5 4 4 5 4 4 4 4 6 7 7 8 9
8 10 10 10 8 7 6 7 7 7 8 8 10 12 11 11 10 10 10 10 9 9 9 9 8 7 7 7 6 6 6 5 4 4 4 3 3 4 5 6 7 8 9 9
13 12 11 10 9 7 7 7 7 8 8 8 10 11 11 10 10 10 9 9 8 8 9 9 8 8 7 6 6 6 6 5 4 4 3 2 2 3 4 5 7 9 9 10
12 8 7 8 6 6 7 7 7 7 8 9 9 10 10 10 9 9 9 8 8 9 9 9 8 8 7 6 6 6 6 5 4 3 2 2 1 1 0 4 6 8 10 11
11 8 8 8 7 7 7 8 7 7 8 9 9 9 9 9 9 9 9 9 9 10 10 9 8 8 7 6 6 6 6 6 4 3 3 3 2 3 2 2 4 7 11 13
6 6 8 7 7 7 7 7 7 7 8 8 8 8 8 9 9 10 10 9 10 10 9 9 8 8 7 6 6 6 6 6 5 4 4 3 3 3 4 5 5 5 8 14
5 5 7 7 7 7 7 6 7 7 7 7 7 7 8 9 10 11 10 10 10 9 9 8 9 9 7 6 6 6 6 4 4 3 3 4 4 4 4 6 6 6 6 9
5 6 7 7 7 7 6 6 6 7 7 7 7 8 8 9 10 10 10 9 9 10 9 8 9 9 8 7 6 6 5 6 5 4 4 4 4 5 5 6 7 7 8 8
4 5 6 6 7 7 6 6 6 6 6 7 8 8 9 9 10 10 10 10 9 9 9 8 9 8 8 7 6 5 4 4 5 4 4 5 5 6 6 6 7 7 7 9
5 5 6 6 6 6 6 5 5 5 6 7 8 8 9 9 10 11 11 11 10 10 9 8 8 8 8 7 6 4 4 4 3 4 4 4 5 5 6 7 8 8 7 8
3 4 4 4 4 4 4 5 5 6 6 6 7 8 9 9 10 11 11 11 10 11 10 9 12 9 8 7 6 4 3 3 3 3 4 5 5 5 6 7 7 8 8 8
3 3 3 3 4 4 4 5 5 5 5 6 7 8 9 10 10 10 10 10 8 8 9 11 10 8 7 5 5 3 3 3 4 4 4 5 6 6 6 7 8 8 8 8
3 3 3 4 4 4 4 4 5 6 6 6 7 9 10 10 10 9 9 10 9 9 10 12 8 7 6 5 5 2 2 2 4 5 5 5 6 6 6 7 7 8 8 8
3 3 3 4 4 4 4 4 5 6 7 7 8 8 9 10 10 9 9 8 9 12 9 7 7 9 9 7 3 2 2 2 3 4 5 6 6 7 7 7 7 8 8 8
3 3 3 4 5 5 6 5 5 6 7 8 8 9 9 9 8 8 9 8 7 12 9 7 10 12 11 6 3 2 2 3 4 5 5 6 6 7 7 7 7 8 9 9
3 3 4 4 4 5 6 6 6 6 7 8 8 8 8 8 8 7 7 11 13 13 8 10 13 12 10 4 2 0 1 3 4 5 6 6 6 6 7 7 7 8 9 10
4 4 4 4 5 5 6 6 6 7 7 6 7 7 6 6 7 8 8 9 12 12 8 9 11 10 6 3 1 1 2 3 4 5 6 6 7 7 7 7 7 8 9 9
4 4 4 5 5 5 5 5 6 6 6 7 7 6 6 5 6 7 7 8 9 10 8 6 6 5 3 2 1 1 3 4 5 5 6 6 7 7 8 8 9 8 9 9
4 4 4 4 4 4 4 5 6 6 6 7 8 7 6 6 6 6 7 7 7 6 5 5 4 3 2 1 1 2 3 4 5 5 6 6 6 7 8 9 8 9 9 10
Wind_Direction
264 274 278 275 275 268 255 253 261 274 281 288 300 309 312 315 320 327 325 328 332 332 333 332 332 331 330 325 323 319 296 275 266 251 231 211 200 193 192 189 183 184 183 182
275 273 275 274 270 267 264 262 263 273 277 285 296 304 307 312 318 320 321 326 328 327 329 328 326 326 328 323 322 318 303 286 286 265 233 210 202 192 188 187 182 180 182 181
275 287 294 272 259 252 252 252 259 268 278 299 307 308 309 313 314 314 321 325 324 323 322 320 319 321 321 318 316 313 305 302 290 287 246 214 202 190 189 185 181 182 182 179
279 294 259 252 244 255 266 267 267 277 292 303 305 309 308 307 310 318 323 320 318 318 317 312 311 316 315 314 314 310 300 298 297 294 269 226 203 193 192 185 182 186 182 179
259 265 272 273 265 252 266 280 276 284 302 312 316 314 305 321 332 325 316 312 313 312 311 312 311 312 316 316 314 310 300 296 296 294 276 239 212 201 191 184 183 185 181 177
245 258 263 271 324 45 344 281 276 299 307 315 324 312 303 321 322 317 314 311 312 311 311 311 310 312 313 312 313 311 306 298 296 292 278 253 219 207 196 184 184 181 177 176
240 252 264 272 112 76 240 261 309 313 304 305 298 284 297 312 310 307 306 305 307 306 303 302 306 309 308 306 306 304 300 296 292 291 285 261 229 207 194 184 180 180 172 171
222 236 252 221 143 214 243 291 307 302 299 297 295 299 303 305 306 307 307 304 305 302 298 298 300 301 301 299 300 302 297 295 289 287 287 267 221 204 194 183 177 178 169 166
214 232 262 259 253 256 276 288 291 295 299 300 301 301 303 304 305 304 304 303 300 297 296 296 297 294 293 294 299 300 299 298 288 283 278 258 224 202 193 185 177 178 171 167
256 256 263 272 276 277 280 286 295 298 301 302 299 301 302 303 302 302 301 301 301 300 298 295 296 290 287 292 296 295 292 293 288 281 280 264 240 210 197 189 182 179 174 167
256 266 277 269 270 280 284 287 293 296 296 297 297 298 299 300 300 300 300 299 299 298 295 293 294 292 293 296 298 295 289 285 284 277 275 282 273 230 211 208 194 184 180 170
256 258 262 279 292 296 291 284 284 291 298 297 295 297 298 299 300 301 302 301 301 298 297 296 295 292 292 293 291 286 284 281 272 261 264 253 250 279 198 196 186 182 174 166
263 276 276 286 299 302 298 295 293 291 290 294 294 294 298 300 302 302 302 302 300 298 296 297 295 290 290 290 288 281 277 273 264 250 244 234 210 182 161 111 140 154 152 152
276 286 283 284 291 296 292 292 292 292 291 292 296 301 302 301 303 303 301 301 300 297 296 298 297 293 293 294 288 281 276 267 252 241 231 221 209 190 174 161 151 142 139 144
274 276 277 291 293 291 290 294 297 294 296 301 304 306 308 308 306 304 303 302 302 298 298 301 300 298 299 293 286 279 273 260 244 229 220 214 203 184 171 159 148 143 135 139
280 281 282 282 284 289 292 292 291 294 301 306 310 311 310 307 304 304 306 304 302 300 300 299 296 297 299 293 287 282 272 261 246 221 210 207 194 175 163 154 149 149 154 152
268 270 276 281 283 287 289 286 287 294 300 304 307 310 310 310 309 309 311 309 300 298 297 293 291 295 296 290 284 276 268 260 245 219 207 198 187 171 161 156 153 151 153 158
248 260 270 273 278 284 291 296 300 301 300 300 306 308 308 308 306 306 309 311 310 307 303 301 299 300 296 291 283 269 259 251 230 201 189 181 173 163 156 153 152 148 144 150
264 271 281 289 295 293 292 296 299 300 302 305 306 304 302 301 302 303 307 310 310 309 311 314 309 304 295 289 284 267 254 240 215 188 172 164 158 153 154 154 151 149 149 151
283 286 291 305 310 300 296 298 300 303 305 305 304 303 303 304 305 306 307 303 297 296 304 310 312 307 301 291 288 271 253 224 180 166 161 157 152 151 152 151 150 148 148 149
285 293 301 301 297 296 296 302 305 303 304 303 298 298 299 301 303 304 305 304 304 308 310 310 311 306 304 299 292 268 243 197 169 162 158 153 149 146 145 147 148 147 146 144
292 293 294 298 298 300 305 308 301 298 298 298 296 297 299 301 304 303 293 290 298 307 313 309 307 307 313 310 295 270 228 188 166 157 154 149 146 145 146 146 146 144 144 143
290 292 296 299 300 302 305 303 296 295 293 295 296 297 296 296 298 300 301 301 307 308 312 303 304 309 314 312 293 266 218 173 157 152 147 144 144 144 146 145 144 144 144 142
298 298 298 301 305 301 297 296 295 295 291 291 288 288 291 297 298 291 289 299 306 305 305 302 307 311 313 309 296 249 146 139 141 142 139 138 138 139 142 143 142 142 141 138
288 286 285 287 288 286 289 298 300 296 293 292 289 287 286 283 288 297 300 300 303 307 305 305 310 313 314 309 311 146 137 137 136 137 137 140 141 141 141 141 140 139 138 137
281 279 276 274 276 283 290 293 296 298 301 302 302 301 301 297 293 296 299 300 300 304 306 306 308 311 315 320 329 138 137 134 130 131 135 137 138 139 139 138 134 135 135 135
276 276 280 283 281 279 283 288 292 295 297 299 301 304 305 305 304 304 304 304 306 308 310 309 309 310 313 336 53 100 114 118 123 128 131 132 134 135 136 134 132 131 132 134
Height
1460 1454 1451 1447 1443 1442 1443 1440 1438 1425 1418 1410 1407 1404 1401 1397 1394 1391 1388 1385 1382 1379 1375 1372 1369 1366 1363 1360 1358 1356 1356 1356 1356 1357 1360 1363 1367 1371 1375 1380 1385 1391 1396 1403
1457 1449 1444 1438 1432 1430 1428 1425 1422 1418 1412 1406 1403 1401 1398 1395 1392 1389 1386 1383 1380 1377 1374 1371 1368 1365 1362 1359 1357 1355 1354 1353 1354 1355 1356 1359 1363 1368 1372 1376 1380 1386 1392 1397
1454 1444 1441 1434 1421 1419 1418 1414 1415 1413 1408 1402 1400 1398 1395 1392 1390 1387 1384 1381 1378 1375 1372 1369 1366 1363 1360 1358 1355 1353 1351 1351 1351 1352 1354 1356 1360 1363 1367 1371 1377 1382 1387 1392
1455 1450 1448 1424 1411 1410 1409 1407 1407 1404 1402 1400 1398 1395 1392 1390 1388 1384 1382 1379 1376 1373 1369 1366 1364 1361 1358 1355 1353 1351 1350 1349 1349 1350 1351 1353 1355 1359 1363 1367 1372 1377 1382 1388
1455 1448 1432 1416 1409 1408 1409 1407 1402 1401 1399 1397 1395 1392 1389 1387 1385 1382 1380 1377 1373 1370 1367 1364 1361 1358 1355 1353 1351 1349 1348 1347 1348 1348 1349 1350 1352 1355 1359 1364 1368 1373 1378 1384
1450 1446 1432 1413 1406 1404 1407 1409 1399 1398 1397 1395 1393 1394 1388 1385 1382 1379 1376 1373 1370 1367 1364 1361 1358 1355 1353 1351 1349 1347 1345 1345 1345 1346 1346 1347 1349 1352 1356 1360 1364 1369 1374 1379
1444 1439 1422 1408 1405 1406 1415 1409 1397 1395 1394 1393 1392 1391 1386 1382 1378 1375 1372 1369 1366 1363 1360 1358 1355 1353 1350 1348 1346 1344 1343 1342 1342 1343 1343 1344 1346 1349 1352 1356 1360 1365 1370 1376
1436 1434 1420 1403 1404 1406 1403 1397 1395 1393 1392 1390 1387 1384 1381 1378 1375 1371 1367 1364 1362 1359 1356 1354 1352 1350 1347 1345 1343 1342 1340 1340 1340 1340 1340 1341 1344 1346 1349 1353 1357 1361 1366 1371
1420 1412 1400 1398 1398 1397 1396 1394 1392 1390 1388 1387 1383 1380 1377 1373 1370 1367 1364 1360 1357 1354 1351 1349 1347 1346 1344 1342 1340 1339 1337 1337 1337 1337 1338 1339 1340 1343 1346 1350 1353 1357 1362 1367
1407 1399 1396 1395 1394 1393 1392 1390 1388 1387 1385 1383 1379 1376 1373 1369 1366 1362 1359 1356 1353 1350 1347 1344 1343 1342 1341 1339 1337 1336 1334 1334 1333 1334 1334 1335 1337 1340 1343 1346 1350 1354 1358 1363
1399 1395 1393 1390 1390 1388 1387 1386 1384 1382 1381 1378 1375 1372 1369 1365 1361 1358 1354 1352 1349 1346 1343 1341 1339 1337 1336 1335 1333 1332 1331 1331 1330 1331 1331 1331 1333 1336 1339 1342 1346 1350 1354 1359
1392 1389 1388 1385 1385 1384 1382 1381 1379 1378 1375 1373 1371 1368 1364 1361 1357 1354 1350 1347 1345 1342 1339 1337 1335 1333 1332 1331 1330 1328 1327 1327 1327 1327 1328 1329 1330 1333 1335 1339 1343 1348 1352 1357
1383 1383 1382 1380 1380 1379 1378 1376 1375 1373 1371 1368 1366 1364 1360 1357 1353 1350 1346 1343 1341 1338 1335 1332 1330 1328 1327 1326 1326 1324 1323 1323 1323 1324 1324 1326 1327 1329 1332 1336 1340 1344 1349 1354
1379 1378 1376 1376 1375 1374 1373 1371 1370 1368 1366 1364 1361 1359 1356 1352 1349 1346 1342 1339 1336 1333 1330 1328 1326 1324 1323 1322 1321 1320 1319 1319 1319 1320 1321 1322 1324 1326 1329 1332 1336 1340 1346 1351
1374 1374 1373 1371 1370 1370 1368 1367 1365 1363 1361 1359 1357 1354 1351 1348 1344 1341 1338 1335 1332 1329 1326 1323 1321 1319 1318 1317 1316 1315 1314 1314 1315 1316 1317 1319 1321 1323 1326 1330 1333 1338 1343 1348
1369 1368 1368 1367 1366 1365 1364 1362 1361 1359 1357 1355 1352 1350 1347 1344 1340 1337 1334 1330 1327 1324 1321 1319 1316 1314 1313 1312 1311 1310 1309 1310 1310 1312 1313 1315 1318 1321 1323 1327 1331 1335 1340 1345
1364 1363 1363 1363 1362 1361 1360 1358 1357 1355 1353 1351 1348 1346 1343 1339 1336 1332 1329 1326 1323 1320 1317 1314 1312 1310 1309 1307 1306 1305 1305 1305 1306 1307 1309 1312 1314 1318 1320 1324 1328 1333 1337 1343
1360 1360 1360 1359 1358 1356 1355 1354 1352 1351 1349 1347 1344 1342 1339 1336 1332 1328 1325 1322 1318 1315 1312 1310 1308 1306 1304 1302 1301 1301 1301 1301 1301 1303 1305 1308 1311 1315 1318 1322 1326 1330 1335 1341
1356 1356 1355 1355 1354 1353 1351 1350 1348 1347 1345 1343 1340 1338 1335 1332 1329 1325 1321 1318 1314 1310 1307 1306 1304 1301 1299 1298 1298 1297 1297 1297 1298 1300 1302 1305 1309 1312 1316 1320 1324 1329 1333 1338
1352 1352 1351 1350 1350 1349 1347 1346 1344 1343 1341 1339 1336 1333 1330 1328 1325 1321 1318 1314 1311 1308 1305 1302 1300 1297 1295 1294 1294 1294 1294 1294 1295 1297 1300 1303 1307 1310 1314 1318 1323 1327 1332 1337
1349 1349 1348 1347 1346 1345 1344 1342 1340 1338 1336 1335 1332 1329 1327 1324 1321 1318 1314 1309 1306 1304 1301 1299 1296 1294 1293 1292 1291 1291 1291 1292 1293 1296 1299 1302 1305 1309 1313 1317 1321 1325 1330 1335
1347 1346 1345 1344 1342 1341 1340 1338 1336 1334 1332 1330 1328 1325 1323 1319 1316 1313 1310 1308 1303 1301 1298 1295 1293 1291 1290 1289 1288 1288 1289 1290 1292 1294 1297 1300 1304 1308 1312 1316 1320 1325 1329 1334
1344 1343 1342 1340 1339 1337 1335 1334 1332 1330 1328 1326 1324 1321 1319 1316 1313 1310 1305 1303 1301 1298 1295 1292 1290 1289 1287 1286 1286 1286 1286 1288 1290 1293 1296 1300 1303 1307 1311 1315 1320 1324 1329 1334
1341 1340 1339 1337 1335 1333 1331 1330 1328 1326 1324 1322 1320 1317 1315 1311 1308 1306 1303 1300 1297 1295 1292 1290 1288 1287 1285 1284 1284 1284 1285 1287 1289 1292 1295 1299 1303 1307 1311 1315 1319 1324 1329 1334
1338 1337 1335 1333 1332 1330 1328 1326 1324 1322 1320 1317 1315 1313 1311 1308 1305 1302 1299 1296 1294 1292 1289 1287 1286 1284 1283 1283 1283 1284 1285 1286 1289 1292 1295 1299 1303 1306 1311 1315 1319 1324 1329 1334
1334 1333 1331 1330 1328 1327 1325 1323 1320 1318 1316 1313 1311 1309 1306 1304 1302 1299 1296 1293 1291 1289 1287 1285 1284 1283 1282 1282 1282 1283 1285 1287 1289 1292 1295 1299 1303 1307 1311 1316 1320 1325 1330 1335
1330 1329 1327 1326 1324 1323 1321 1319 1317 1315 1313 1310 1307 1305 1303 1300 1298 1295 1293 1291 1288 1286 1284 1283 1282 1281 1281 1281 1282 1283 1285 1287 1290 1293 1296 1300 1304 1308 1312 1317 1321 1326 1331 1336